Date String (YYYY-MM-DD hh:mm:ss) UTC,Instrument flags,absolute air pressure of the measurement (hPa),sample flow rate (lpm),inlet stack bypass flow (lpm),air temperature of the measurement (°C),ambient temperature measured by the external sensor (°C),aerosol sample conditioner tube jacket temperature (°C),OPC LED temperature (°C),internal box temperature (°C),relative humidity of the measurement (%),span deviation,mass concentration of particles derived from Lorenz-Mie calculation of OPC scattering (μg/m³),mass concentration of particles derived from Lorenz-Mie calculation of OPC scattering (μg/m³),mass concentration of particles derived from Lorenz-Mie calculation of OPC scattering (μg/m³)
DateTimeUTC,F1_M11,P_M11,Q1_M11,Q2_M11,T1_M11,T2_M11,T3_M11,T4_M11,T5_M11,U1_M11,ZSPAN_M11,X0_M11,X2_M11,X1_M11
2023-09-16 02:00:00,SystemResetWarning,0836.5,4.99,000.00,028.1,026.5,000.0,036.6,029.7,24.4,0000.0,0007.85,0004.59,0004.14
2023-09-16 02:01:00,SystemResetWarning,0836.4,5.00,000.00,028.2,026.6,000.0,036.5,029.8,24.4,0000.0,0007.77,0004.57,0004.14
2023-09-16 02:02:00,SystemResetWarning,0836.5,5.01,000.00,028.2,026.7,000.0,036.5,029.8,24.4,0000.0,0007.83,0004.57,0004.14
2023-09-16 02:03:00,SystemResetWarning,0836.5,5.01,000.00,028.2,026.7,000.0,036.6,029.8,24.2,0000.0,0007.79,0004.57,0004.13
2023-09-16 02:04:00,SystemResetWarning,0836.5,4.99,000.00,028.2,026.8,000.0,036.6,029.8,24.4,0000.0,0007.74,0004.57,0004.14
2023-09-16 02:05:00,SystemResetWarning,0836.5,5.00,000.00,028.2,026.8,000.0,036.6,029.8,24.6,0000.0,0008.13,0004.59,0004.16
2023-09-16 02:06:00,SystemResetWarning,0836.5,4.99,000.00,028.2,026.9,000.0,036.6,029.9,24.7,0000.0,0008.35,0004.59,0004.17
2023-09-16 02:07:00,SystemResetWarning,0836.5,5.00,000.00,028.2,026.9,000.0,036.6,029.9,24.6,0000.0,0008.33,0004.57,0004.17
2023-09-16 02:08:00,SystemResetWarning,0836.5,5.00,000.00,028.3,026.9,000.0,036.6,029.9,24.7,0000.0,0008.32,0004.58,0004.18
2023-09-16 02:09:00,SystemResetWarning,0836.5,5.00,000.00,028.3,027.0,000.0,036.6,029.9,25.0,0000.0,0008.65,0004.63,0004.20
2023-09-16 02:10:00,SystemResetWarning,0836.5,5.01,000.00,028.3,027.0,000.0,036.6,030.0,25.2,0000.0,0008.98,0004.67,0004.21
2023-09-16 02:11:00,SystemResetWarning,0836.6,5.01,000.00,028.3,027.0,000.0,036.6,030.0,25.2,0000.0,0008.96,0004.66,0004.21
2023-09-16 02:12:00,SystemResetWarning,0836.6,5.00,000.00,028.3,027.0,000.0,036.6,030.0,25.2,0000.0,0009.09,0004.74,0004.21
2023-09-16 02:13:00,SystemResetWarning,0836.6,4.99,000.00,028.4,027.0,000.0,036.6,030.0,25.2,0000.0,0009.06,0004.75,0004.22
2023-09-16 02:14:00,SystemResetWarning,0836.6,5.00,000.00,028.4,027.1,000.0,036.7,030.0,25.1,0000.0,0009.83,0004.78,0004.24
2023-09-16 02:15:00,SystemResetWarning,0836.7,5.00,000.00,028.4,027.1,000.0,036.7,030.0,25.1,0000.0,0009.92,0004.81,0004.27
2023-09-16 02:16:00,SystemResetWarning,0836.7,4.99,000.00,028.4,027.1,000.0,036.7,030.0,25.1,0000.0,0010.13,0004.86,0004.28
2023-09-16 02:17:00,SystemResetWarning,0836.6,5.00,000.00,028.4,027.1,000.0,036.7,030.0,25.0,0000.0,0010.09,0004.83,0004.28
2023-09-16 02:18:00,SystemResetWarning,0836.6,5.00,000.00,028.4,027.1,000.0,036.7,030.0,24.9,0000.0,0010.04,0004.83,0004.29
2023-09-16 02:19:00,SystemResetWarning,0836.6,5.01,000.00,028.4,027.1,000.0,036.7,030.0,24.9,0000.0,0010.49,0004.84,0004.29
2023-09-16 02:20:00,SystemResetWarning,0836.6,5.01,000.00,028.4,027.1,000.0,036.8,030.0,24.9,0000.0,0010.54,0004.81,0004.30
2023-09-16 02:21:00,SystemResetWarning,0836.6,5.01,000.00,028.4,027.1,000.0,036.8,030.0,24.9,0000.0,0010.57,0004.82,0004.30
2023-09-16 02:22:00,SystemResetWarning,0836.6,4.99,000.00,028.5,027.1,000.0,036.8,030.0,24.9,0000.0,0011.03,0004.85,0004.32
2023-09-16 02:23:00,SystemResetWarning,0836.6,5.00,000.00,028.5,027.1,000.0,036.8,030.1,24.9,0000.0,0011.13,0004.83,0004.33
2023-09-16 02:24:00,SystemResetWarning,0836.6,4.99,000.00,028.5,027.1,000.0,036.8,030.1,24.8,0000.0,0011.19,0004.84,0004.34
2023-09-16 02:25:00,SystemResetWarning,0836.7,5.00,000.00,028.5,027.1,000.0,036.8,030.1,24.9,0000.0,0010.65,0004.84,0004.35
2023-09-16 02:26:00,SystemResetWarning,0836.6,5.00,000.00,028.5,027.1,000.0,036.8,030.1,24.9,0000.0,0010.44,0004.84,0004.35
2023-09-16 02:27:00,SystemResetWarning,0836.7,5.00,000.00,028.5,027.2,000.0,036.8,030.1,24.8,0000.0,0010.32,0004.84,0004.35
2023-09-16 02:28:00,SystemResetWarning,0836.7,5.00,000.00,028.5,027.2,000.0,036.9,030.1,24.7,0000.0,0009.61,0004.84,0004.35
2023-09-16 02:29:00,SystemResetWarning,0836.7,5.00,000.00,028.5,027.2,000.0,036.9,030.1,24.6,0000.0,0009.66,0004.87,0004.37
2023-09-16 02:30:00,SystemResetWarning,0836.7,5.01,000.00,028.5,027.2,000.0,036.9,030.1,24.6,0000.0,0009.54,0004.87,0004.37
2023-09-16 02:31:00,SystemResetWarning,0836.7,5.01,000.00,028.5,027.2,000.0,036.9,030.1,24.4,0000.0,0009.06,0004.88,0004.37
2023-09-16 02:32:00,SystemResetWarning,0836.7,5.00,000.00,028.5,027.2,000.0,036.9,030.1,24.4,0000.0,0009.00,0004.85,0004.37
2023-09-16 02:33:00,SystemResetWarning,0836.6,5.00,000.00,028.5,027.2,000.0,036.9,030.1,24.4,0000.0,0008.61,0004.82,0004.36
2023-09-16 02:34:00,SystemResetWarning,0836.6,5.00,000.00,028.5,027.2,000.0,036.9,030.1,24.5,0000.0,0009.11,0004.78,0004.35
2023-09-16 02:35:00,SystemResetWarning,0836.7,5.00,000.00,028.6,027.2,000.0,036.9,030.1,24.5,0000.0,0009.10,0004.75,0004.32
2023-09-16 02:36:00,SystemResetWarning,0836.7,5.00,000.00,028.6,027.2,000.0,036.9,030.1,24.5,0000.0,0008.99,0004.69,0004.30
2023-09-16 02:37:00,SystemResetWarning,0836.7,5.00,000.00,028.6,027.2,000.0,036.9,030.1,24.5,0000.0,0009.27,0004.67,0004.29
2023-09-16 02:38:00,SystemResetWarning,0836.7,5.00,000.00,028.6,027.2,000.0,037.0,030.1,24.5,0000.0,0009.32,0004.63,0004.27
2023-09-16 02:39:00,SystemResetWarning,0836.7,5.00,000.00,028.6,027.2,000.0,037.0,030.1,24.4,0000.0,0009.67,0004.61,0004.25
2023-09-16 02:40:00,SystemResetWarning,0836.7,5.02,000.00,028.6,027.2,000.0,037.0,030.2,24.4,0000.0,0009.60,0004.57,0004.21
2023-09-16 02:41:00,SystemResetWarning,0836.8,5.00,000.00,028.6,027.2,000.0,037.0,030.1,24.4,0000.0,0009.51,0004.56,0004.21
2023-09-16 02:42:00,SystemResetWarning,0836.8,4.98,000.00,028.6,027.2,000.0,037.0,030.2,24.4,0000.0,0009.47,0004.55,0004.20
2023-09-16 02:43:00,SystemResetWarning,0836.8,5.01,000.00,028.6,027.2,000.0,037.0,030.1,24.4,0000.0,0009.65,0004.57,0004.19
2023-09-16 02:44:00,SystemResetWarning,0836.8,5.01,000.00,028.6,027.2,000.0,037.0,030.2,24.4,0000.0,0009.73,0004.58,0004.18
2023-09-16 02:45:00,SystemResetWarning,0836.8,5.00,000.00,028.6,027.2,000.0,037.0,030.2,24.4,0000.0,0009.00,0004.59,0004.18
2023-09-16 02:46:00,SystemResetWarning,0836.8,5.00,000.00,028.6,027.2,000.0,037.0,030.2,24.4,0000.0,0008.87,0004.61,0004.20
2023-09-16 02:47:00,SystemResetWarning,0836.8,5.00,000.00,028.6,027.2,000.0,037.0,030.2,24.4,-000.1,0009.00,0004.66,0004.21
2023-09-16 02:48:00,SystemResetWarning,0836.8,5.00,000.00,028.6,027.2,000.0,037.0,030.2,24.3,-000.6,0008.97,0004.69,0004.20
2023-09-16 02:49:00,SystemResetWarning,0836.8,5.00,000.00,028.6,027.2,000.0,037.0,030.2,24.3,-000.4,0008.92,0004.69,0004.19
2023-09-16 02:50:00,SystemResetWarning,0836.8,4.99,000.00,028.6,027.2,000.0,037.0,030.2,24.2,-000.1,0008.78,0004.70,0004.18
2023-09-16 02:51:00,SystemResetWarning,0836.7,5.00,000.00,028.6,027.2,000.0,037.0,030.2,24.2,-000.6,0008.80,0004.70,0004.17
2023-09-16 02:52:00,SystemResetWarning,0836.8,5.00,000.00,028.6,027.2,000.0,037.0,030.2,24.1,-000.5,0008.84,0004.71,0004.16
2023-09-16 02:53:00,SystemResetWarning,0836.8,5.00,000.00,028.6,027.2,000.0,037.0,030.2,24.1,-000.0,0008.94,0004.70,0004.13
2023-09-16 02:54:00,SystemResetWarning,0836.8,5.00,000.00,028.6,027.2,000.0,037.0,030.2,24.1,0000.0,0009.33,0004.65,0004.09
2023-09-16 02:55:00,SystemResetWarning,0836.8,5.01,000.00,028.6,027.2,000.0,037.1,030.2,24.0,0000.0,0008.89,0004.61,0004.05
2023-09-16 02:56:00,SystemResetWarning,0836.8,5.00,000.00,028.6,027.2,000.0,037.1,030.2,23.9,0000.0,0008.99,0004.60,0004.02
2023-09-16 02:57:00,SystemResetWarning,0836.9,4.99,000.00,028.6,027.2,000.0,037.1,030.2,24.0,0000.0,0008.96,0004.57,0003.98
2023-09-16 02:58:00,SystemResetWarning,0836.9,5.00,000.00,028.6,027.2,000.0,037.1,030.2,23.9,0000.0,0008.79,0004.52,0003.96
2023-09-16 02:59:00,SystemResetWarning,0836.9,5.00,000.00,028.6,027.2,000.0,037.1,030.2,24.0,0000.0,0008.55,0004.49,0003.92
